GW1524 Weather Reports


time (UTC)temp
F
wind
direction
speed
knots
gust
knots
rain 1hr
in
rain 24hr
in
rain mn
in
humidity
%
barometer
mb
20260504140523 57 219 2.6 5.2 0.00 0.00 0.00 49 1009.7
20260504130520 52 213 2.6 6.1 0.00 0.00 0.00 53 1009.8
20260504110525 43 212 1.7 2.6 0.00 0.00 0.00 73 1010.4
20260504100527 44 180 1.7 2.6 0.00 0.00 0.00 69 1009.9
20260504081528 39 186 3.5 3.5 0.00 0.00 0.00 80 1010.0
20260504080529 39 187 2.6 3.5 0.00 0.00 0.00 81 1010.1
20260504050557 42 200 1.7 3.5 0.00 0.00 0.00 72 1010.5
20260504045532 41 218 1.7 3.5 0.00 0.00 0.00 73 1010.6
20260504044533 41 225 1.7 3.5 0.00 0.00 0.00 73 1010.6
20260504043532 40 190 0.9 1.7 0.00 0.00 0.00 74 1010.7
20260504042532 40 204 2.6 3.5 0.00 0.00 0.00 75 1010.7
20260504041533 40 210 2.6 3.5 0.00 0.00 0.00 73 1010.6
20260504040532 41 210 2.6 3.5 0.00 0.00 0.00 73 1010.4
20260504035532 41 201 2.6 3.5 0.00 0.00 0.00 72 1010.4
20260504034558 42 201 2.6 4.3 0.00 0.00 0.00 67 1010.2
20260504033522 41 195 1.7 2.6 0.00 0.00 0.00 69 1010.3
20260504032522 43 214 1.7 3.5 0.00 0.00 0.00 66 1010.3
20260504031522 45 211 1.7 3.5 0.00 0.00 0.00 60 1010.3
20260504030522 45 48 1.7 5.2 0.00 0.00 0.00 56 1010.1
20260504025523 46 207 2.6 7.0 0.00 0.00 0.00 56 1010.0
20260504024523 46 74 1.7 2.6 0.00 0.00 0.00 54 1010.1
20260504023548 46 28 1.7 6.1 0.00 0.00 0.00 54 1010.2
20260504022523 46 336 2.6 7.8 0.00 0.00 0.00 53 1010.1
20260504021523 46 15 3.5 7.8 0.00 0.00 0.00 52 1010.1
20260504020524 47 59 1.7 4.3 0.00 0.00 0.00 51 1010.2
20260504015610 47 349 2.6 6.1 0.00 0.00 0.00 50 1010.2
20260504014546 47 260 2.6 6.1 0.00 0.00 0.00 50 1010.1
20260504013611 47 187 2.6 5.2 0.00 0.00 0.00 49 1010.0
20260504012546 47 222 3.5 6.1 0.00 0.00 0.00 49 1009.9
20260504011521 47 356 2.6 7.8 0.00 0.00 0.00 48 1009.8
20260504010521 47 261 2.6 5.2 0.00 0.00 0.00 48 1009.7
20260504005522 47 75 2.6 5.2 0.00 0.00 0.00 48 1009.5
20260504004522 47 1 2.6 5.2 0.00 0.00 0.00 47 1009.4
20260504003522 47 41 2.6 6.1 0.00 0.00 0.00 45 1009.3
20260504002522 47 206 3.5 7.0 0.00 0.00 0.00 45 1009.2
20260504001522 47 195 2.6 6.1 0.00 0.00 0.00 45 1009.1
20260504000522 47 198 2.6 7.0 0.00 0.00 0.00 42 1008.9
20260503235523 48 255 2.6 6.1 0.00 0.00 0.00 40 1008.7
20260503234523 48 231 2.6 7.0 0.00 0.00 0.00 40 1008.7
20260503233523 48 349 2.6 6.1 0.00 0.00 0.00 39 1008.5
20260503232524 48 19 3.5 7.0 0.00 0.00 0.00 38 1008.5
20260503231523 48 199 1.7 4.3 0.00 0.00 0.00 38 1008.5
20260503230520 48 269 3.5 7.0 0.00 0.00 0.00 36 1008.4
20260503225521 49 258 4.3 10.4 0.00 0.00 0.00 36 1008.3
20260503224521 49 321 1.7 5.2 0.00 0.00 0.00 36 1008.3
20260503223521 49 306 4.3 8.7 0.00 0.00 0.00 36 1008.3
20260503222521 49 310 2.6 8.7 0.00 0.00 0.00 36 1008.3
20260503221521 49 310 4.3 8.7 0.00 0.00 0.00 37 1008.3
20260503220521 49 347 7.0 10.4 0.00 0.00 0.00 37 1008.2
20260503215522 49 345 4.3 9.6 0.00 0.00 0.00 40 1008.2
20260503214522 50 318 5.2 8.7 0.00 0.00 0.00 40 1008.2
20260503213522 49 15 4.3 7.8 0.00 0.00 0.00 41 1008.1
20260503212522 49 332 5.2 8.7 0.00 0.00 0.00 42 1008.1
20260503211522 48 24 5.2 8.7 0.00 0.00 0.00 44 1008.1
20260503210523 48 3 4.3 9.6 0.00 0.00 0.00 44 1008.3
20260503205523 48 344 4.3 8.7 0.00 0.00 0.00 44 1008.3
20260503204523 48 353 2.6 7.0 0.00 0.00 0.00 44 1008.1
20260503203523 47 19 4.3 7.8 0.00 0.00 0.00 45 1008.3
20260503202520 47 3 3.5 8.7 0.00 0.00 0.00 46 1008.4
20260503201546 46 22 2.6 8.7 0.00 0.00 0.00 47 1008.4
20260503200546 46 25 3.5 7.0 0.00 0.00 0.00 48 1008.4
20260503195521 45 237 2.6 7.8 0.00 0.00 0.00 49 1008.6
20260503194547 46 345 4.3 8.7 0.00 0.00 0.00 49 1008.8
20260503193521 46 255 4.3 10.4 0.00 0.00 0.00 49 1008.5
20260503192547 45 7 5.2 11.3 0.00 0.00 0.00 48 1008.7
20260503191522 45 355 6.1 10.4 0.00 0.00 0.00 49 1008.8
20260503190522 45 6 4.3 7.8 0.00 0.00 0.00 49 1008.7
20260503185522 45 298 3.5 7.8 0.00 0.00 0.00 51 1008.8
20260503184522 45 356 4.3 10.4 0.00 0.00 0.00 51 1008.9
20260503183522 44 355 4.3 8.7 0.00 0.00 0.00 51 1009.0
20260503182522 44 286 5.2 10.4 0.00 0.00 0.00 51 1008.9
20260503181523 45 353 5.2 11.3 0.00 0.00 0.00 51 1008.9
20260503180548 45 240 6.1 14.8 0.00 0.00 0.00 51 1009.0
20260503175523 45 257 6.1 11.3 0.00 0.00 0.00 50 1008.7
20260503174523 46 281 3.5 7.8 0.00 0.00 0.00 49 1008.6
20260503173523 44 244 3.5 7.8 0.00 0.00 0.00 52 1008.5
20260503172521 44 6 3.5 7.8 0.00 0.00 0.00 52 1008.8
20260503171611 44 343 5.2 8.7 0.00 0.00 0.00 51 1008.8
20260503170521 44 305 5.2 9.6 0.00 0.00 0.00 51 1008.7
20260503150523 42 347 2.6 6.1 0.00 0.00 0.00 64 1009.2